User: anonymous   Login
Location: Unspecified
(0.0000°N, 0.0000°E)
Time: 17:21:35
(UTC+01:00)
Language:

Cosmos 1980 Rocket - Orbit

View from above orbital plane
View from above orbital plane
View from above satellite
View from above satellite

Ground track
Ground track

The orbit data is extracted from the following two-line orbital elements,

1 19650U 88102B   17053.83082477 -.00000197  00000-0 -75823-4 0  9993
2 19650  70.9973 255.5562 0014561 347.7670  12.3097 14.15750390459802
Epoch (UTC): 22 February 2017 19:56:23
Eccentricity: 0.0014561
inclination: 70.9973°
perigee height: 829 km
apogee height: 850 km
right ascension of ascending node: 255.5562°
argument of perigee: 347.7670°
revolutions per day: 14.15750390
mean anomaly at epoch: 12.3097°
orbit number at epoch: 45980

The dashed part of the orbit path shows where the satellite is in the earth's shadow,  

DLR